This is the latest recevied weather packets stored in our database for station/object KD7KCN-5. If no packets are shown the sender has not sent any weather packets the latest 10 day(s).
| Time | Temp. | Humidity | Pressure | Rain* | Wind** | Luminosity | Snow |
|---|---|---|---|---|---|---|---|
| 1777926111 | 16.11° C | 31% | 1009.2 hPa | 0 mm | - | 555 W/m² | - |
| 1777925510 | 16.11° C | 32% | 1009.1 hPa | 0 mm | - | 629 W/m² | - |
| 1777924911 | 16.11° C | 33% | 1009.1 hPa | 0 mm | - | 744 W/m² | - |
| 1777924311 | 16.11° C | 32% | 1008.9 hPa | 0 mm | - | 594 W/m² | - |
| 1777923711 | 16.67° C | 32% | 1009.3 hPa | 0 mm | - | 779 W/m² | - |
| 1777923112 | 16.67° C | 36% | 1009.1 hPa | 0 mm | - | 378 W/m² | - |
| 1777922511 | 16.67° C | 36% | 1009.2 hPa | 0 mm | - | 918 W/m² | - |
| 1777921911 | 15.56° C | 37% | 1009.4 hPa | 0 mm | - | 575 W/m² | - |
| 1777921312 | 16.11° C | 38% | 1009.4 hPa | 0 mm | - | 1004 W/m² | - |
| 1777920711 | 16.11° C | 37% | 1009.4 hPa | 0 mm | - | 1011 W/m² | - |
| 1777919511 | 16.67° C | 42% | 1009.5 hPa | 0 mm | - | 677 W/m² | - |
| 1777918911 | 16.11° C | 40% | 1009.5 hPa | 0 mm | - | 626 W/m² | - |
| 1777918311 | 15.56° C | 46% | 1009.6 hPa | 0 mm | - | 916 W/m² | - |
| 1777917711 | 15.56° C | 41% | 1010.4 hPa | 0 mm | - | 677 W/m² | - |
| 1777917111 | 16.11° C | 41% | 1010.5 hPa | 0 mm | - | 274 W/m² | - |
| 1777915912 | 16.11° C | 46% | 1010.6 hPa | 0 mm | - | 937 W/m² | - |
| 1777914713 | 14.44° C | 46% | 1010.6 hPa | 0 mm | - | 234 W/m² | - |
| 1777914112 | 14.44° C | 46% | 1010.5 hPa | 0 mm | - | 281 W/m² | - |
| 1777913511 | 14.44° C | 46% | 1010.5 hPa | 0 mm | - | 193 W/m² | - |
| 1777912911 | 14.44° C | 46% | 1010.5 hPa | 0 mm | - | 311 W/m² | - |
| 1777912311 | 14.44° C | 46% | 1010.2 hPa | 0 mm | - | 237 W/m² | - |
| 1777911711 | 14.44° C | 45% | 1010.5 hPa | 0 mm | - | 230 W/m² | - |
| 1777911111 | 15° C | 45% | 1010.3 hPa | 0 mm | - | 292 W/m² | - |
| 1777910512 | 14.44° C | 44% | 1010.5 hPa | 0 mm | - | 316 W/m² | - |
| 1777909911 | 14.44° C | 45% | 1010.4 hPa | 0 mm | - | 223 W/m² | - |
* Rain latest hour (hover to see other rain measurements)
** Current wind speed in m/s (hover to see current wind gust speed)